Location: Auckland
(36.8670°S, 174.7670°E)
Time: 10:26:27
(UTC+12:00)

A-11 Canister half - Pass Details

Date: 26 July 2019
Orbit: 1526 x 1683 km, 47.3° (Epoch: 21 August)

Event Time Altitude Azimuth Distance (km) Brightness Sun altitude
Rises 09:41:45 0° 269° (W) 4,701 11.2 21.4°
Reaches altitude 10° 09:44:58 10° 262° (W) 3,732 10.7 21.8°
Maximum altitude 09:54:01 48° 190° (S) 1,994 9.5 23.0°
Drops below altitude 10° 10:03:23 10° 117° (ESE) 3,847 11.3 24.1°
Sets 10:06:45 0° 110° (ESE) 4,855 11.8 24.5°
